Chicago Lansing, IN

8:46 AM CDT on March 24, 2017 (GMT -0500)
Lansing Municipal

Weather History for KIGQ - November, 2011

Change the Weather History Date:

Sunday, November 6, 2011

  Actual Average (KGYY) Record (KGYY)
Temperature  
Mean Temperature 51 °F -  
Max Temperature 59 °F 55 °F 77 °F (1975)
Min Temperature 43 °F 38 °F 17 °F (1971)
Degree Days  
Heating Degree Days 14    
Growing Degree Days 1 (Base 50)    
Moisture  
Dew Point 41 °F    
Average Humidity 69    
Maximum Humidity 84    
Minimum Humidity 59    
Precipitation  
Precipitation 0.00 in - - ()
Sea Level Pressure  
Sea Level Pressure 30.06 in    
Wind  
Wind Speed 14 mph (South)    
Max Wind Speed 28 mph    
Max Gust Speed 39 mph    
Visibility 10 miles    
Events      
Averages and records for this station are not official NWS values.
T = Trace of Precipitation, MM = Missing Value Source: NWS Daily Summary

Daily Weather History Graph

Daily Weather History Graph

Search for Another Location

Airport or City:

Trip Planner

Search our weather history database for the weather conditions in past years. The results will help you decide how hot, cold, wet, or windy it might be!

Date:

Astronomy

Nov. 06, 2011 Rise Set
Actual Time 6:27 AM CST 4:39 PM CST
Civil Twilight 5:58 AM CST 5:08 PM CST
Nautical Twilight 5:25 AM CST 5:41 PM CST
Astronomical Twilight 4:53 AM CST 6:13 PM CST
Moon 2:25 PM CST (11/6) 2:31 AM CST (11/6)
Length of Visible Light 11h 09m
Length of Day
10h 11m
Waxing Gibbous, 86% of the Moon is Illuminated
Nov 6
Waxing Gibbous
Nov 10
Full
Nov 18
Last Quarter
Nov 25
New
Dec 2
First Quarter

Hourly Weather History & Observations

Time (CST) Temp. Windchill Dew Point Humidity Pressure Visibility Wind Dir Wind Speed Gust Speed Precip Events Conditions
12:15 AM 45.3 °F 40.6 °F 32.0 °F 60% 30.07 in 10.0 mi SSE 9.2 mph - N/A   Clear
12:35 AM 45.3 °F 40.1 °F 32.0 °F 60% 30.07 in 10.0 mi SSE 10.4 mph - N/A   Clear
12:55 AM 45.5 °F 40.3 °F 32.0 °F 59% 30.07 in 10.0 mi South 10.4 mph - N/A   Clear
1:15 AM 45.5 °F 40.3 °F 32.0 °F 59% 30.07 in 10.0 mi South 10.4 mph - N/A   Clear
1:35 AM 45.3 °F 39.7 °F 32.2 °F 60% 30.07 in 10.0 mi South 11.5 mph 18.4 mph N/A   Clear
1:55 AM 44.8 °F 39.4 °F 32.7 °F 63% 30.08 in 10.0 mi South 10.4 mph - N/A   Clear
1:15 AM 43.5 °F 37.9 °F 33.1 °F 67% 30.08 in 10.0 mi South 10.4 mph - N/A   Clear
1:35 AM 43.2 °F 37.4 °F 33.4 °F 69% 30.08 in 10.0 mi South 10.4 mph - N/A   Clear
1:55 AM 43.7 °F 38.1 °F 34.3 °F 70% 30.09 in 10.0 mi South 10.4 mph - N/A   Clear
2:15 AM 43.9 °F 37.5 °F 34.9 °F 71% 30.08 in 10.0 mi South 12.7 mph - N/A   Clear
2:35 AM 44.2 °F 38.4 °F 35.6 °F 72% 30.08 in 10.0 mi South 11.5 mph - N/A   Clear
2:55 AM 44.1 °F 39.0 °F 35.8 °F 73% 30.08 in 10.0 mi South 9.2 mph - N/A   Clear
3:15 AM 43.5 °F 38.3 °F 36.0 °F 75% 30.08 in 10.0 mi South 9.2 mph - N/A   Clear
3:35 AM 43.5 °F 37.5 °F 36.5 °F 76% 30.08 in 10.0 mi South 11.5 mph - N/A   Clear
3:55 AM 44.6 °F 38.1 °F 37.4 °F 76% 30.08 in 10.0 mi South 13.8 mph 18.4 mph N/A   Clear
4:15 AM 45.0 °F 38.5 °F 38.1 °F 77% 30.08 in 10.0 mi South 13.8 mph 20.7 mph N/A   Clear
4:35 AM 45.0 °F 39.3 °F 38.5 °F 78% 30.08 in 10.0 mi South 11.5 mph - N/A   Clear
4:55 AM 44.6 °F 38.8 °F 38.8 °F 80% 30.08 in 10.0 mi South 11.5 mph - N/A   Clear
5:15 AM 45.1 °F 38.8 °F 39.4 °F 80% 30.08 in 10.0 mi South 13.8 mph - N/A   Clear
5:35 AM 45.5 °F 39.6 °F 40.1 °F 81% 30.08 in 10.0 mi South 12.7 mph - N/A   Clear
5:55 AM 46.0 °F 39.9 °F 40.5 °F 81% 30.07 in 10.0 mi South 13.8 mph - N/A   Clear
6:15 AM 45.7 °F 39.8 °F 40.6 °F 83% 30.07 in 10.0 mi South 12.7 mph - N/A   Clear
6:35 AM 45.5 °F 39.2 °F 41.0 °F 84% 30.07 in 10.0 mi South 13.8 mph - N/A   Clear
6:55 AM 45.9 °F 39.7 °F 41.4 °F 84% 30.07 in 10.0 mi South 13.8 mph 18.4 mph N/A   Clear
7:15 AM 47.1 °F - 42.3 °F 83% 30.07 in 10.0 mi South 15.0 mph - N/A   Clear
7:35 AM 47.8 °F - 42.8 °F 83% 30.07 in 10.0 mi South 17.3 mph 20.7 mph N/A   Clear
7:55 AM 48.7 °F - 43.3 °F 82% 30.07 in 10.0 mi South 17.3 mph 23.0 mph N/A   Clear
8:15 AM 50.5 °F - 44.4 °F 80% 30.06 in 10.0 mi South 17.3 mph 23.0 mph N/A   Clear
8:35 AM 52.3 °F - 44.8 °F 75% 30.06 in 10.0 mi South 21.9 mph 26.5 mph N/A   Clear
8:55 AM 53.6 °F - 45.1 °F 73% 30.06 in 10.0 mi South 19.6 mph 26.5 mph N/A   Clear
9:15 AM 55.2 °F - 45.5 °F 70% 30.06 in 10.0 mi South 20.7 mph 28.8 mph N/A   Clear
9:35 AM 56.8 °F - 45.5 °F 66% 30.06 in 10.0 mi SSW 19.6 mph 31.1 mph N/A   Clear
9:55 AM 58.1 °F - 45.5 °F 63% 30.06 in 10.0 mi SSW 25.3 mph 35.7 mph N/A   Clear
10:15 AM 58.5 °F - 45.5 °F 62% 30.07 in 10.0 mi SSW 25.3 mph 33.4 mph N/A   Clear
10:35 AM 58.8 °F - 45.5 °F 61% 30.06 in 10.0 mi SSW 27.6 mph 39.1 mph N/A   Mostly Cloudy
10:55 AM 58.8 °F - 45.5 °F 61% 30.06 in 10.0 mi SSW 20.7 mph 35.7 mph N/A   Mostly Cloudy
11:15 AM 59.7 °F - 45.5 °F 59% 30.05 in 10.0 mi SSW 26.5 mph 35.7 mph N/A   Scattered Clouds
11:35 AM 59.2 °F - 45.3 °F 60% 30.04 in 10.0 mi SSW 21.9 mph 33.4 mph N/A   Mostly Cloudy
11:55 AM 58.6 °F - 45.3 °F 61% 30.04 in 10.0 mi SSW 20.7 mph 35.7 mph N/A   Overcast
12:15 PM 57.9 °F - 45.1 °F 62% 30.04 in 10.0 mi SSW 23.0 mph 31.1 mph N/A   Overcast
12:35 PM 57.6 °F - 45.0 °F 63% 30.04 in 10.0 mi SSW 17.3 mph 25.3 mph N/A   Overcast
12:55 PM 57.4 °F - 45.5 °F 65% 30.04 in 10.0 mi SSW 16.1 mph 24.2 mph N/A   Overcast
1:15 PM 57.2 °F - 45.5 °F 65% 30.04 in 10.0 mi SSW 18.4 mph 29.9 mph N/A   Overcast
1:35 PM 56.7 °F - 45.1 °F 65% 30.04 in 10.0 mi SSW 24.2 mph 28.8 mph N/A   Overcast
1:55 PM 56.3 °F - 45.5 °F 67% 30.04 in 10.0 mi SSW 21.9 mph 29.9 mph N/A   Overcast
2:15 PM 56.5 °F - 45.7 °F 67% 30.04 in 10.0 mi SSW 21.9 mph 33.4 mph N/A   Overcast
2:35 PM 56.5 °F - 45.5 °F 67% 30.04 in 10.0 mi SSW 19.6 mph 25.3 mph N/A   Overcast
2:55 PM 56.5 °F - 45.3 °F 66% 30.04 in 10.0 mi SSW 25.3 mph 31.1 mph N/A   Overcast
3:15 PM 56.7 °F - 44.6 °F 64% 30.04 in 10.0 mi South 20.7 mph 32.2 mph N/A   Overcast
3:35 PM 56.7 °F - 44.4 °F 64% 30.04 in 10.0 mi SSW 20.7 mph 28.8 mph N/A   Overcast
3:55 PM 56.8 °F - 44.2 °F 63% 30.04 in 10.0 mi SSW 23.0 mph 26.5 mph N/A   Overcast
4:15 PM 56.7 °F - 44.1 °F 63% 30.05 in 10.0 mi SSW 19.6 mph 28.8 mph N/A   Overcast
4:35 PM 56.5 °F - 44.2 °F 64% 30.05 in 10.0 mi SSW 18.4 mph 27.6 mph N/A   Overcast
4:55 PM 56.5 °F - 44.4 °F 64% 30.06 in 10.0 mi SSW 16.1 mph 24.2 mph N/A   Overcast
5:15 PM 56.5 °F - 44.6 °F 64% 30.06 in 10.0 mi SSW 18.4 mph 25.3 mph N/A   Overcast
5:35 PM 56.7 °F - 44.4 °F 64% 30.07 in 10.0 mi SSW 18.4 mph 23.0 mph N/A   Overcast
5:55 PM 56.8 °F - 43.9 °F 62% 30.07 in 10.0 mi SSW 18.4 mph 24.2 mph N/A   Overcast
6:15 PM 56.8 °F - 44.1 °F 62% 30.08 in 10.0 mi SSW 18.4 mph 23.0 mph N/A   Overcast
6:35 PM 56.8 °F - 44.2 °F 63% 30.08 in 10.0 mi SSW 19.6 mph 24.2 mph N/A   Overcast
7:15 PM 56.8 °F - 44.1 °F 62% 30.08 in 10.0 mi SSW 18.4 mph 23.0 mph N/A   Overcast
7:35 PM 56.8 °F - 43.9 °F 62% 30.09 in 10.0 mi SSW 17.3 mph 23.0 mph N/A   Overcast
7:55 PM 56.7 °F - 43.7 °F 62% 30.09 in 10.0 mi SSW 13.8 mph 23.0 mph N/A   Overcast
8:15 PM 56.7 °F - 43.7 °F 62% 30.09 in 10.0 mi SSW 16.1 mph 24.2 mph N/A   Overcast
8:35 PM 56.7 °F - 43.5 °F 61% 30.10 in 10.0 mi SSW 17.3 mph 23.0 mph N/A   Overcast
8:55 PM 56.3 °F - 43.5 °F 62% 30.11 in 10.0 mi SSW 13.8 mph 21.9 mph N/A   Overcast
9:15 PM 55.6 °F - 43.7 °F 64% 30.11 in 10.0 mi SW 10.4 mph - N/A   Mostly Cloudy
9:35 PM 55.0 °F - 43.7 °F 66% 30.12 in 10.0 mi SSW 13.8 mph - N/A   Mostly Cloudy
10:15 PM 55.8 °F - 44.1 °F 65% 30.12 in 10.0 mi SSW 13.8 mph 18.4 mph N/A   Overcast
10:35 PM 55.8 °F - 44.4 °F 66% 30.12 in 10.0 mi SSW 16.1 mph 19.6 mph N/A   Overcast
10:55 PM 55.4 °F - 44.4 °F 67% 30.12 in 10.0 mi SSW 13.8 mph - N/A   Overcast